948  
ASUS44 KLZK 201215  
RWRLZK  
 
WEATHER ROUNDUP FOR ARKANSAS  
NATIONAL WEATHER SERVICE LITTLE ROCK AR  
700 AM CDT SAT APR 20 2019  
 
NOTE: "FAIR" INDICATES FEW OR NO CLOUDS BELOW 12,000 FEET WITH NO  
SIGNIFICANT WEATHER AND/OR S TO VISIBILITY
.  
 
ARZ001-003-010-029-201300-  
NORTHWEST ARKANSAS  
 
CITY SKY/WX TMP DP RH WIND PRES REMARKS
 
FAYETTEVILLE CLEAR 33 31 92 S5 30.01R WCI 29  
6HR MIN TEMP: 33; 6HR MAX TEMP: 39;  
 
FORT SMITH CLEAR 42 38 85 W7 30.01R  
6HR MIN TEMP: 41; 6HR MAX TEMP: 49;  
 
HARRISON CLEAR 44 32 62 NW6 29.97R  
6HR MIN TEMP: 43; 6HR MAX TEMP: 47;  
 
BENTONVILLE CLEAR 38 35 89 CALM 30.02R  
6HR MIN TEMP: 38; 6HR MAX TEMP: 44;  
 
ROGERS CLEAR 37 33 85 W3 30.00R  
6HR MIN TEMP: 36; 6HR MAX TEMP: 46;  
 
SILOAM SPGS CLEAR 38 35 89 SE5 30.00R  
6HR MIN TEMP: 33; 6HR MAX TEMP: 45;  
 
HIGHFILL CLEAR 35 32 88 CALM 30.00R  
6HR MIN TEMP: 35; 6HR MAX TEMP: 47;  
 
SPRINGDALE CLEAR 37 37 100 S3 30.00S  

 
 
ARZ004-005-016-201300-  
NORTH CENTRAL ARKANSAS  
 
CITY SKY/WX TMP DP RH WIND PRES REMARKS
 
BATESVILLE CLEAR 44 33 65 NW5 29.94R  
6HR MIN TEMP: 43; 6HR MAX TEMP: 48;  
 
FLIPPIN CLEAR 47 34 60 W6 29.96R  
6HR MIN TEMP: 45; 6HR MAX TEMP: 51;  
 
MTN HOME CLEAR 40 34 79 N3 29.94R  
6HR MIN TEMP: 38; 6HR MAX TEMP: 46;  
 

 
 
ARZ040-041-201300-  
WEST CENTRAL ARKANSAS  
 
CITY SKY/WX TMP DP RH WIND PRES REMARKS
 
MENA CLEAR 37 37 100 W5 30.01S  
MOUNT IDA CLEAR 39 37 92 CALM 29.97R  
6HR MIN TEMP: 39; 6HR MAX TEMP: 45;  
 

 
 
ARZ009-017-025-026-028-201300-  
NORTHEAST ARKANSAS  
 
CITY SKY/WX TMP DP RH WIND PRES REMARKS
 
JONESBORO FAIR 47 32 56 W9 29.88R  
6HR MIN TEMP: 46; 6HR MAX TEMP: 52;  
 
NEWPORT FAIR 45 34 65 NW10 29.91R  
6HR MIN TEMP: 44; 6HR MAX TEMP: 50;  
 
WALNUT RIDGE FAIR 46 30 53 NW15 29.89R  
6HR MIN TEMP: 44; 6HR MAX TEMP: 50;  
 
BLYTHEVILLE FAIR 44 32 62 NW10 29.84R  
6HR MIN TEMP: 43; 6HR MAX TEMP: 49;  
 

 
 
ARZ022-023-033-042-044-201300-  
CENTRAL ARKANSAS  
 
CITY SKY/WX TMP DP RH WIND PRES REMARKS
 
LITTLE ROCK CLEAR 46 35 65 W7 29.96R  
6HR MIN TEMP: 44; 6HR MAX TEMP: 52;  
 
N LITTLE ROCK N/A 46 39 76 NW5 29.99R  
6HR MIN TEMP: 46; 6HR MAX TEMP: 50;  
 
JACKSONVILLE CLEAR 45 38 77 W5 29.95R  
6HR MIN TEMP: 41; 6HR MAX TEMP: 48;  
 
CONWAY SUNNY 46 39 76 W8 N/A  
SEARCY FAIR 45 35 68 W3 29.95R  
6HR MIN TEMP: 44; 6HR MAX TEMP: 48;  
 
HOT SPRINGS CLEAR 42 40 92 W3 30.00R  
6HR MIN TEMP: 42; 6HR MAX TEMP: 49;  
 
RUSSELLVILLE CLEAR 38 38 100 CALM 29.98R  
6HR MIN TEMP: 38; 6HR MAX TEMP: 44;  
 
CLINTON FAIR 34 34 100 CALM 29.98R  

 
 
ARZ036-201300-  
EAST ARKANSAS  
 
CITY SKY/WX TMP DP RH WIND PRES REMARKS
 
WEST MEMPHIS FAIR 47 35 63 NW5 29.87R  
6HR MIN TEMP: 47; 6HR MAX TEMP: 52;  
 

 
 
ARZ050-053-066-070-073-201300-  
SOUTHWEST ARKANSAS  
 
CITY SKY/WX TMP DP RH WIND PRES REMARKS
 
ARKADELPHIA FAIR 48 41 76 CALM 30.00R  
6HR MIN TEMP: 47; 6HR MAX TEMP: 52;  
 
CAMDEN FAIR 46 37 71 W3 30.00R  
TEXARKANA CLEAR 43 41 93 SW6 30.04R  
6HR MIN TEMP: 41; 6HR MAX TEMP: 51;  
 
EL DORADO FAIR 43 41 93 CALM 30.01R  
6HR MIN TEMP: 41; 6HR MAX TEMP: 51;  
 
DE QUEEN CLEAR 39 39 100 CALM 30.03R  
6HR MIN TEMP: 39; 6HR MAX TEMP: 46;  
 

 
 
ARZ056-057-069-201300-  
SOUTHEAST ARKANSAS  
 
CITY SKY/WX TMP DP RH WIND PRES REMARKS
 
PINE BLUFF FAIR 46 36 68 W9 29.97R  
6HR MIN TEMP: 46; 6HR MAX TEMP: 51;  
 
STUTTGART FAIR 48 39 71 W10 29.95R  
6HR MIN TEMP: 47; 6HR MAX TEMP: 52; 6HR PCP: 0.01;  
 
MONTICELLO FAIR 43 38 82 W5 29.97R  
6HR MIN TEMP: 43; 6HR MAX TEMP: 51;  
 

 
 
 
 
CLICK HERE TO GO TO PREVIOUS BULLETINS.

The Nexlab AR Page Main Text Page